Powrót do katalogu

TELSTAR 18V

AktywnyŁącznośćGEO
NORAD 43611·PAYLOAD·🇨🇦 Canada

Wystrzelony Sep 10, 2018 z Cape Canaveral Space Force Station

Loading…

TLE

ŚwieżeSource: CelesTrak SupGP

Epoka: Sep 14, 2026, 06:00 UTC

1 43611C 18069A   26257.25000000 -.00000198  00000+0  00000+0 0  2572
2 43611   0.0293 257.1902 0001775 266.3620  57.6982  1.00272446    16

Śledź TELSTAR 18V w czasie rzeczywistym z AllMySat

Download on the App Store